Sanford, ME

8:21 PM EST on December 16, 2017 (GMT -0500)
Sanford Regional

Weather History for KSFM - September, 2012

Change the Weather History Date:

Saturday, September 29, 2012

  Actual Average Record
Temperature  
Mean Temperature 52 °F -  
Max Temperature 55 °F 63 °F 80 °F (2010)
Min Temperature 48 °F 41 °F 24 °F (2000)
Degree Days  
Heating Degree Days 14    
Growing Degree Days 2 (Base 50)    
Moisture  
Dew Point 49 °F    
Average Humidity 90    
Maximum Humidity 94    
Minimum Humidity 82    
Precipitation  
Precipitation 0.01 in - - ()
Sea Level Pressure  
Sea Level Pressure 29.94 in    
Wind  
Wind Speed 11 mph (North)    
Max Wind Speed 15 mph    
Max Gust Speed 21 mph    
Visibility 6 miles    
Events      
Averages and records for this station are not official NWS values.
T = Trace of Precipitation, MM = Missing Value Source: NWS Daily Summary

Daily Weather History Graph

Daily Weather History Graph

Search for Another Location

Airport or City:

Trip Planner

Search our weather history database for the weather conditions in past years. The results will help you decide how hot, cold, wet, or windy it might be!

Date:

Astronomy

Sep. 29, 2012 Rise Set
Actual Time 6:38 AM EDT 6:26 PM EDT
Civil Twilight 6:10 AM EDT 6:55 PM EDT
Nautical Twilight 5:36 AM EDT 7:28 PM EDT
Astronomical Twilight 5:03 AM EDT 8:01 PM EDT
Moon 5:56 PM EDT (9/29) 6:07 AM EDT (9/29)
Length of Visible Light 12h 45m
Length of Day
11h 48m
Full, 100% of the Moon is Illuminated
Sep 29
Full
Sep 29
Full
Oct 8
Last Quarter
Oct 15
New
Oct 21
First Quarter

Hourly Weather History & Observations

Time (EDT) Temp. Dew Point Humidity Pressure Visibility Wind Dir Wind Speed Gust Speed Precip Events Conditions
12:15 AM 51.8 °F 48.2 °F 88% 30.05 in 9.0 mi NE 10.4 mph - N/A   Overcast
12:35 AM 51.8 °F 48.2 °F 88% 30.04 in 7.0 mi NE 9.2 mph - N/A   Overcast
12:55 AM 51.8 °F 48.2 °F 88% 30.03 in 7.0 mi NE 11.5 mph - N/A   Overcast
1:15 AM 51.8 °F 48.2 °F 88% 30.03 in 7.0 mi NE 12.7 mph - N/A   Overcast
1:35 AM 51.8 °F 48.2 °F 88% 30.02 in 5.0 mi NNE 12.7 mph 19.6 mph N/A   Overcast
1:55 AM 51.8 °F 48.2 °F 88% 30.02 in 4.0 mi NE 15.0 mph 18.4 mph N/A   Overcast
2:15 AM 51.8 °F 48.2 °F 88% 30.00 in 4.0 mi NNE 12.7 mph 19.6 mph N/A   Overcast
2:35 AM 51.8 °F 48.2 °F 88% 29.99 in 4.0 mi NE 13.8 mph 18.4 mph N/A   Overcast
2:55 AM 51.8 °F 48.2 °F 88% 29.98 in 5.0 mi NNE 15.0 mph 19.6 mph N/A   Overcast
3:15 AM 50.0 °F 48.2 °F 94% 29.98 in 4.0 mi NNE 13.8 mph 19.6 mph N/A   Overcast
3:35 AM 50.0 °F 48.2 °F 94% 29.98 in 5.0 mi NNE 12.7 mph 16.1 mph N/A   Overcast
3:55 AM 50.0 °F 48.2 °F 94% 29.98 in 5.0 mi NNE 12.7 mph 20.7 mph N/A   Overcast
4:15 AM 50.0 °F 48.2 °F 94% 29.98 in 2.5 mi NNE 12.7 mph - N/A   Overcast
4:35 AM 50.0 °F 46.4 °F 87% 29.98 in 2.5 mi NNE 12.7 mph - N/A   Overcast
4:55 AM 48.2 °F 46.4 °F 93% 29.98 in 3.0 mi NNE 12.7 mph - 0.01 in   Overcast
5:15 AM 48.2 °F 46.4 °F 93% 29.98 in 4.0 mi NNE 10.4 mph - N/A   Overcast
5:35 AM 48.2 °F 46.4 °F 93% 29.96 in 3.0 mi North 11.5 mph 17.3 mph N/A   Overcast
5:55 AM 48.2 °F 46.4 °F 93% 29.96 in 4.0 mi North 13.8 mph - N/A   Overcast
6:15 AM 48.2 °F 46.4 °F 93% 29.96 in 5.0 mi NNE 12.7 mph 18.4 mph N/A   Overcast
6:35 AM 50.0 °F 46.4 °F 87% 29.95 in 5.0 mi North 12.7 mph 18.4 mph N/A   Overcast
6:55 AM 50.0 °F 48.2 °F 94% 29.94 in 6.0 mi North 10.4 mph - N/A   Overcast
7:15 AM 50.0 °F 48.2 °F 94% 29.94 in 7.0 mi North 12.7 mph - N/A   Overcast
7:35 AM 50.0 °F 48.2 °F 94% 29.94 in 4.0 mi North 10.4 mph - N/A   Overcast
7:55 AM 50.0 °F 48.2 °F 94% 29.95 in 2.0 mi North 11.5 mph - N/A   Overcast
8:15 AM 50.0 °F 48.2 °F 94% 29.95 in 1.8 mi North 8.1 mph - N/A   Overcast
8:35 AM 50.0 °F 48.2 °F 94% 29.95 in 1.5 mi North 12.7 mph 16.1 mph N/A   Overcast
8:55 AM 50.0 °F 48.2 °F 94% 29.95 in 1.5 mi North 12.7 mph - N/A   Overcast
9:15 AM 50.0 °F 48.2 °F 94% 29.94 in 2.0 mi North 15.0 mph - N/A   Overcast
9:35 AM 50.0 °F 48.2 °F 94% 29.95 in 4.0 mi North 11.5 mph 18.4 mph N/A   Overcast
9:55 AM 51.8 °F 48.2 °F 88% 29.94 in 5.0 mi North 11.5 mph - N/A   Overcast
10:15 AM 51.8 °F 48.2 °F 88% 29.93 in 5.0 mi North 12.7 mph - N/A   Overcast
10:35 AM 51.8 °F 48.2 °F 88% 29.93 in 7.0 mi North 13.8 mph 18.4 mph N/A   Overcast
11:15 AM 51.8 °F 48.2 °F 88% 29.92 in 4.0 mi North 13.8 mph - N/A   Overcast
11:35 AM 51.8 °F 48.2 °F 88% 29.92 in 3.0 mi North 13.8 mph - N/A   Overcast
11:55 AM 51.8 °F 48.2 °F 88% 29.92 in 4.0 mi North 10.4 mph - N/A   Overcast
12:15 PM 51.8 °F 48.2 °F 88% 29.92 in 7.0 mi North 9.2 mph - N/A   Overcast
12:35 PM 51.8 °F 48.2 °F 88% 29.92 in 9.0 mi North 9.2 mph - N/A   Overcast
12:55 PM 51.8 °F 48.2 °F 88% 29.92 in 9.0 mi North 9.2 mph - N/A   Overcast
1:15 PM 53.6 °F 50.0 °F 88% 29.91 in 5.0 mi North 8.1 mph - N/A   Overcast
1:35 PM 53.6 °F 50.0 °F 88% 29.90 in 8.0 mi North 9.2 mph - N/A   Overcast
1:55 PM 53.6 °F 50.0 °F 88% 29.89 in 10.0 mi North 10.4 mph - N/A   Overcast
2:16 PM 55.4 °F 50.0 °F 82% 29.89 in 10.0 mi North 12.7 mph - N/A   Overcast
2:35 PM 55.4 °F 50.0 °F 82% 29.89 in 10.0 mi North 10.4 mph - N/A   Overcast
2:55 PM 55.4 °F 50.0 °F 82% 29.89 in 10.0 mi North 12.7 mph - N/A   Overcast
3:15 PM 55.4 °F 50.0 °F 82% 29.89 in 10.0 mi North 8.1 mph - N/A   Overcast
3:35 PM 53.6 °F 50.0 °F 88% 29.90 in 10.0 mi North 9.2 mph - N/A   Overcast
3:55 PM 55.4 °F 50.0 °F 82% 29.89 in 8.0 mi North 9.2 mph - N/A   Overcast
4:15 PM 55.4 °F 50.0 °F 82% 29.88 in 10.0 mi North 10.4 mph - N/A   Overcast
4:35 PM 55.4 °F 50.0 °F 82% 29.89 in 10.0 mi North 10.4 mph - N/A   Overcast
4:55 PM 55.4 °F 50.0 °F 82% 29.89 in 10.0 mi North 8.1 mph - N/A   Overcast
5:15 PM 55.4 °F 50.0 °F 82% 29.88 in 10.0 mi North 11.5 mph - N/A   Overcast
5:55 PM 55.4 °F 50.0 °F 82% 29.89 in 10.0 mi North 5.8 mph - N/A   Overcast
6:15 PM 55.4 °F 50.0 °F 82% 29.90 in 10.0 mi NNW 3.5 mph - N/A   Overcast
6:35 PM 53.6 °F 51.8 °F 94% 29.90 in 10.0 mi North 5.8 mph - N/A   Overcast
6:55 PM 53.6 °F 51.8 °F 94% 29.91 in 6.0 mi North 5.8 mph - N/A   Overcast
7:15 PM 53.6 °F 51.8 °F 94% 29.91 in 5.0 mi NNW 5.8 mph - N/A   Overcast
7:35 PM 53.6 °F 51.8 °F 94% 29.91 in 6.0 mi North 4.6 mph - N/A   Overcast
7:55 PM 53.6 °F 51.8 °F 94% 29.91 in 4.0 mi North 3.5 mph - N/A   Overcast
8:15 PM 53.6 °F 51.8 °F 94% 29.91 in 3.0 mi North 5.8 mph - N/A   Overcast
8:35 PM 53.6 °F 51.8 °F 94% 29.90 in 5.0 mi NNE 5.8 mph - N/A   Overcast
8:55 PM 53.6 °F 51.8 °F 94% 29.92 in 4.0 mi North 3.5 mph - N/A   Overcast
9:15 PM 53.6 °F 51.8 °F 94% 29.92 in 5.0 mi North 5.8 mph - N/A   Overcast
9:55 PM 53.6 °F 51.8 °F 94% 29.91 in 2.5 mi NNW 4.6 mph - N/A   Overcast
10:15 PM 53.6 °F 51.8 °F 94% 29.92 in 3.0 mi North 3.5 mph - N/A   Overcast
10:35 PM 53.6 °F 51.8 °F 94% 29.92 in 5.0 mi NNW 3.5 mph - N/A   Overcast
10:55 PM 53.6 °F 51.8 °F 94% 29.92 in 4.0 mi North 4.6 mph - N/A   Overcast
11:15 PM 53.6 °F 51.8 °F 94% 29.92 in 5.0 mi North 5.8 mph - N/A   Overcast
11:35 PM 53.6 °F 51.8 °F 94% 29.91 in 2.5 mi North 6.9 mph - N/A   Overcast
11:55 PM 53.6 °F 51.8 °F 94% 29.92 in 3.0 mi NNE 5.8 mph - N/A   Overcast